Loisir ou Compétition : Rejoignez un Club de la Fédération

Résultats

2e DERBY DES MOUILLES

GLIERES

FS Hommes

Jury de Compétition

Délégué Technique :
ROCHET JOANNY (MB)
D.T. Adjoint :
 
Dir. Epreuve :
ROGUET JEAN CLAUDE (MB)

Caractéristiques de la Piste

Piste :
PLATEAU DES GLIERES
Distance :
2.5 km
Point Haut :
 
Point Bas :
 
Montée Tot. :
 
Montée Max. :
 
Homologation :
2012-33-1

Pénalité Appliquée :
 
Coefficient :
 

Catégorie :
U12
Style :
L
Clt Dos Clt/Cat Code An Nom Prénom Com Club Temps Ecart Points
Classés
1 39 1/U12 FFS2686260 2005 BOSSUT AUGUSTIN MB PRAZ LYS-SOM 06:28.4 00:00.0
2 41 2/U12 FFS2686539 2005 LACROIX MATTHIAS MB DRAGONS ANNY 06:28.9 00:00.5
3 35 3/U12 FFS2671565 2005 COLOMBAN ALEXIS MB SCNP ROCHOIS 06:31.2 00:02.8
4 40 4/U12 FFS2686938 2005 VALLEIX JORIS MB SCNP ROCHOIS 06:35.2 00:06.8
5 37 5/U12 FFS2673756 2005 PEYRON ARTHUR MB CS CHAMONIX 06:38.2 00:09.8
6 38 6/U12 FFS2676910 2005 CLAVEL SIMON MB CS LA CLUSAZ 06:41.2 00:12.8
7 49 7/U12 FFS2686538 2005 JOMIER LOIS MB DRAGONS ANNY 06:46.2 00:17.8
8 42 8/U12 FFS2667744 2005 BIZZOCCHI ESTEBAN MB SC D'AGY 06:48.5 00:20.1
9 36 9/U12 FFS2686663 2005 PERRILLAT BOITEUX ANTHONY MB SC GD BORNAN 06:49.3 00:20.9
10 61 10/U12 FFS2681171 2005 LUZET HUGO MB CS LA CLUSAZ 06:53.6 00:25.2
11 44 11/U12 FFS2686939 2005 GRENARD MAX MB SCNP ROCHOIS 06:54.4 00:26.0
12 45 12/U12 FFS2687455 2005 FOUCAULT LECERF MAE MB SCNP ROCHOIS 06:56.2 00:27.8
13 43 13/U12 FFS2666324 2005 FAVRE FELIX KILLIAN MB SC GD BORNAN 06:58.2 00:29.8
14 47 14/U12 FFS2686672 2005 BROCHANT LUCAS MB SC GD BORNAN 06:58.4 00:30.0
15 64 15/U12 FFS2686693 2005 PASSERAT BENJAMIN MB SC GD BORNAN 07:01.0 00:32.6
16 58 16/U12 FFS2686793 2005 MARIE ADELIN MB SC D'AGY 07:07.1 00:38.7
17 62 17/U12 FFS2687102 2005 SYLVESTRE BARON PAUL MB SCNP ROCHOIS 07:15.4 00:47.0
18 51 18/U12 FFS2686681 2005 DELOCHE LINO MB SC GD BORNAN 07:18.0 00:49.6
19 59 19/U12 FFS2686698 2005 PERILLAT NOAH MB SC GD BORNAN 07:29.2 01:00.8
20 48 20/U12 FFS2686940 2005 LEVET PROSPER MB SCNP ROCHOIS 07:30.3 01:01.9
21 56 21/U12 FFS2686542 2005 PEYRET TILIEN MB DRAGONS ANNY 07:31.7 01:03.3
22 72 22/U12 FFS2686691 2005 FOURNIER BIDOZ MAXIME MB SC GD BORNAN 07:32.5 01:04.1
23 65 23/U12 FFS2687035 2005 CORNU MATHIEU MB CS CHAMONIX 07:32.8 01:04.4
24 53 24/U12 FFS2681304 2005 PERSONNAZ LOAN MB DRAGONS ANNY 07:36.2 01:07.8
25 74 25/U12 FFS2688043 2005 MAGNIEZ OSCAR MB DRAGONS ANNY 07:37.1 01:08.7
26 76 26/U12 FFS2686545 2005 VINCENT VACLE LEON MB DRAGONS ANNY 07:48.0 01:19.6
27 69 27/U12 FFS2681424 2005 BOUVEROT TINO MB SC CONTAMINE 07:49.0 01:20.6
28 54 28/U12 FFS2686905 2005 MIR EMARATI MILO MB CS CHAMONIX 07:49.6 01:21.2
29 67 29/U12 FFS2686531 2005 BALDUCCI UGO MB DRAGONS ANNY 07:50.8 01:22.4
30 63 30/U12 FFS2686259 2005 DUCREY BRICE MB PRAZ LYS-SOM 07:55.5 01:27.1
31 57 31/U12 FFS2687856 2005 VEISY KILLIAN MB EN HT GIFFRE 08:04.6 01:36.2
32 75 32/U12 FFS2667745 2005 SARRAZIN BAPTISTE MB SC D'AGY 08:07.4 01:39.0
33 50 33/U12 FFS2687034 2005 FIVEL DEMORET HUGO MB SC CONTAMINE 08:08.8 01:40.4
34 70 34/U12 FFS2686534 2005 BRISBARD TIMOTHE MB DRAGONS ANNY 08:20.5 01:52.1
35 52 35/U12 FFS2686262 2005 LESSERTISSEUX VALENTIN MB PRAZ LYS-SOM 08:32.2 02:03.8
36 66 36/U12 FFS2686914 2005 LESCOUFF RONAN MB CS CHAMONIX 08:38.4 02:10.0
37 68 37/U12 FFS2687100 2005 BOURLA SIMON MB SCNP ROCHOIS 09:03.4 02:35.0
38 71 38/U12 FFS2687490 2005 DAGAND LUBIN MB DRAGONS ANNY 09:19.5 02:51.1
39 77 39/U12 FFS2687763 2005 HARDY VALENTIN MB CS MEGEVE 09:50.1 03:21.7
Non partants
34 FFS2686695 2005 PERRILLAT BOTTONET JUDICA MB SC GD BORNAN
46 FFS2686543 2005 ROMERI NATHAN MB DRAGONS ANNY
55 FFS2686242 2005 VIGUIER QUENTIN MB CS LA CLUSAZ
60 FFS2686801 2005 GARBY KEVIN MB SC D'AGY
73 FFS2688042 2005 JOUVENSAL MATHIEU MB DRAGONS ANNY
78 FFS2690844 2005 HAEBERLI ARTHUR MB CS LA CLUSAZ